Hourly Data Report for December 06, 2017

All times are specified in Local Standard Time (LST). Add 1 hour to adjust for Daylight Saving Time where and when it is observed.

OTTAWA INTL A
ONTARIO

45°19'00.000" N
75°40'00.000" W
114.90 m
6106001
71628
YOW

Download Data

Hourly Data (December 2017)
Hourly Data Report for December 6, 2017
Temp Definition
°C
Dew Point Temp Definition
°C
Rel Hum Definition
%
Wind Dir Definition
10's deg

Wind Spd Definition
km/h
Visibility Definition
km
Stn Press Definition
kPa
Hmdx Definition


Wind Chill Definition


Weather Definition


TIME
00:00 Legend Double Dagger 4.4 -1.3 67 22 32 24.1 98.96     LegendNANA
01:00 Legend Double Dagger 3.6 -1.5 69 23 35 24.1 99.09     Snow Showers
02:00 Legend Double Dagger 1.4 -7.4 52 24 32 24.1 99.24     LegendNANA
03:00 Legend Double Dagger 1.1 -8.7 48 22 31 24.1 99.36     LegendNANA
04:00 Legend Double Dagger 0.4 -10.7 43 24 35 24.1 99.39     Mostly Cloudy
05:00 Legend Double Dagger -0.3 -10.7 45 23 29 24.1 99.46   -7 LegendNANA
06:00 Legend Double Dagger -0.7 -8.9 54 21 24 24.1 99.48   -7 LegendNANA
07:00 Legend Double Dagger -0.2 -10.0 48 22 25 24.1 99.48   -6 Mostly Cloudy
08:00 Legend Double Dagger -0.1 -10.8 44 22 28 24.1 99.46   -6 LegendNANA
09:00 Legend Double Dagger 0.4 -10.4 45 22 22 24.1 99.49     LegendNANA
10:00 Legend Double Dagger 0.8 -10.3 44 22 32 24.1 99.51     Mainly Clear
11:00 Legend Double Dagger 1.2 -10.5 41 23 31 24.1 99.47     LegendNANA
12:00 Legend Double Dagger 1.9 -11.2 38 22 31 24.1 99.39     LegendNANA
13:00 Legend Double Dagger 2.5 -11.4 35 24 28 24.1 99.32     Clear
14:00 Legend Double Dagger 2.5 -13.4 30 23 34 24.1 99.25     LegendNANA
15:00 Legend Double Dagger 2.2 -13.2 31 23 36 24.1 99.29     LegendNANA
16:00 Legend Double Dagger 1.4 -11.7 37 24 25 24.1 99.34     Mostly Cloudy
17:00 Legend Double Dagger 1.1 -10.6 42 22 18 24.1 99.35     LegendNANA
18:00 Legend Double Dagger 0.9 -10.0 44 22 19 24.1 99.37     LegendNANA
19:00 Legend Double Dagger 0.5 -9.6 47 23 24 24.1 99.39     Mostly Cloudy
20:00 Legend Double Dagger 0.8 -8.9 49 23 29 24.1 99.36     LegendNANA
21:00 Legend Double Dagger 0.0 -8.6 53 22 16 24.1 99.35   -5 LegendNANA
22:00 Legend Double Dagger 0.0 -8.2 54 23 18 24.1 99.36   -5 Mostly Cloudy
23:00 Legend Double Dagger -0.2 -7.2 59 23 19 24.1 99.39   -5 LegendNANA

Notes on Data Quality.

Legend

  • E = Estimated
  • M = Missing
  • NA = Not Available
  • ‡ = Partner data that is not subject to review by the National Climate Archives
Date modified: